Content
SEND FEEDBACK

Daily
Averages
Monthly
Summary
United States of America

FORT BLISS, TEXAS


Home > North America > United States > Texas
Elevation: 3917 feet     Latitude: 31 48N     Longitude: 106 24W

WEATHER
 
SELECT A DAY
Number of Records: 175,399;   Date Range: 1/1/95 - 11/25/14
 
SHARE

PRINT THIS DATA

[ ← Previous Day ]
WEATHER ALMANAC - NOVEMBER 13, 2013
[ Next Day → ]
[ °C ]   °F
Weather ElementAverageHighLow
Temperature51.2 °F60.1 °F (2:51 pm)45 °F (1:51 am)
Dewpoint36.5 °F39.9 °F (3:51 pm)33.1 °F (1:51 am)
Humidity57.6 %66 % (7:38 am)46 % (1:51 pm)
Barometer30.28 in30.48 in (5:39 am)30.07 in (11:51 pm)
Wind Speed4.4 mph9.2 mph (11:51 am)
Weather ElementAverage
Visibility10 mi
Wind DirectionENE (72.8 °)

Weather ElementTotal
Precipitation---
Heating Degree Days12.5 (Base 65)
Growing Degree Days2.6 (Base 50)
Averaged from 25 records on November 13, 2013
WEATHER CONDITIONS BREAKOUT
WIND DIRECTION BREAKOUT
WEATHER BY HOUR - NOVEMBER 13, 2013
[ °C ]   °F
Local TimeTemperatureDewpointHumidityBarometerVisibilityWind DirectionWind SpeedGust SpeedPrecipitationEventsConditions
1:51 AM45.0 °F33.1 °F63 %30.44 in10.0 miEast (100°)5.8 mphOvercast
2:51 AM45.0 °F33.1 °F63 %30.42 in10.0 miENE (70°)3.5 mphOvercast
3:51 AM46.0 °F34.0 °F63 %30.41 in10.0 miCalmOvercast
4:51 AM46.0 °F33.1 °F61 %30.41 in10.0 miEast (80°)5.8 mphOvercast
5:39 AM46.4 °F33.8 °F62 %30.48 in10.0 miEast (100°)6.9 mphOvercast
5:51 AM46.0 °F33.1 °F61 %30.42 in10.0 miEast (80°)4.6 mphOvercast
6:51 AM46.0 °F34.0 °F63 %30.42 in10.0 miENE (60°)4.6 mphOvercast
7:38 AM46.4 °F35.6 °F66 %30.48 in10.0 miEast (100°)3.5 mphOvercast
7:51 AM46.0 °F35.1 °F66 %30.42 in10.0 miENE (60°)3.5 mphOvercast
8:51 AM46.9 °F35.1 °F63 %30.42 in10.0 miENE (70°)3.5 mphOvercast
9:51 AM48.9 °F36.0 °F61 %30.40 in10.0 miENE (70°)4.6 mph0.00 inOvercast
10:51 AM51.1 °F37.0 °F59 %30.36 in10.0 miEast (100°)6.9 mphOvercast
11:51 AM53.1 °F36.0 °F52 %30.31 in10.0 miEast (100°)9.2 mphOvercast
12:51 PM54.0 °F37.0 °F53 %30.25 in10.0 miESE (110°)4.6 mphMostly Cloudy
1:51 PM59.0 °F37.9 °F46 %30.20 in10.0 miEast (100°)6.9 mphScattered Clouds
2:51 PM60.1 °F39.0 °F46 %30.16 in10.0 miENE (60°)5.8 mphScattered Clouds
3:51 PM60.1 °F39.9 °F47 %30.14 in10.0 miESE (110°)8.1 mphScattered Clouds
4:51 PM59.0 °F39.9 °F49 %30.12 in10.0 miESE (120°)5.8 mphScattered Clouds
5:51 PM57.9 °F39.9 °F51 %30.13 in10.0 miSE (130°)5.8 mphScattered Clouds
6:51 PM55.0 °F37.0 °F51 %30.14 in10.0 miEast (100°)4.6 mphScattered Clouds
7:51 PM54.0 °F37.9 °F55 %30.14 in10.0 miEast (100°)5.8 mphMostly Cloudy
8:51 PM53.1 °F37.9 °F57 %30.14 in10.0 miCalmMostly Cloudy
9:51 PM52.0 °F39.0 °F61 %30.12 in10.0 miCalmScattered Clouds
10:51 PM52.0 °F39.0 °F61 %30.11 in10.0 miCalmScattered Clouds
11:51 PM52.0 °F39.0 °F61 %30.07 in10.0 miCalmMostly Cloudy
Hourly data recorded from KELP, located miles away from Fort Bliss, Texas







STORIES FROM OUR PARTNERS